Location: Saint Louis
(38.6272°N, 90.1978°W)
Time: 23:24:24
(UTC-05:00)

Tiangong 1 - Visible Passes

Search period start: 23 September 2014 00:00
Search period end: 03 October 2014 00:00
Orbit: 360 x 370 km, 42.8° (Epoch: 23 September)

Date Brightness Start Highest point End Pass type
(mag) Time Alt. Az. Time Alt. Az. Time Alt. Az.
29 Sep 3.7 05:36:46 10° S 05:38:27 14° SE 05:40:08 10° ESE visible
30 Sep 2.0 06:05:36 10° SW 06:08:24 41° SSE 06:11:17 10° E visible
01 Oct 3.3 05:02:54 19° SE 05:02:54 19° SE 05:04:46 10° E visible
02 Oct 1.2 05:31:52 50° SSW 05:32:20 60° SSE 05:35:19 10° ENE visible
